TimePST,TemperatureF,Dew PointF,Humidity,Sea Level PressureIn,VisibilityMPH,Wind Direction,Wind SpeedMPH,Gust SpeedMPH,PrecipitationIn,Events,Conditions,WindDirDegrees,DateUTC
12:24 AM,30.2,26.6,86,30.07,1.8,Calm,Calm,-,0.01,Snow,Light Snow,0,2013-01-28 08:24:00
12:39 AM,30.2,26.6,86,30.06,2.0,Calm,Calm,-,0.02,Snow,Light Snow,0,2013-01-28 08:39:00
12:49 AM,30.2,28.4,93,30.06,1.2,Calm,Calm,-,0.02,Snow,Light Snow,0,2013-01-28 08:49:00
12:56 AM,30.9,28.0,89,30.16,1.2,Calm,Calm,-,0.02,Snow,Light Snow,0,2013-01-28 08:56:00
1:21 AM,30.2,28.4,93,30.06,1.5,Calm,Calm,-,0.01,Snow,Light Snow,0,2013-01-28 09:21:00
1:29 AM,30.2,28.4,93,30.06,1.5,Calm,Calm,-,0.01,Snow,Light Snow,0,2013-01-28 09:29:00
1:36 AM,30.2,28.4,93,30.06,2.0,Calm,Calm,-,0.01,Snow,Light Snow,0,2013-01-28 09:36:00
1:47 AM,30.2,28.4,93,30.06,4.0,Calm,Calm,-,0.02,Snow,Light Snow,0,2013-01-28 09:47:00
1:56 AM,30.9,28.0,89,30.16,5.0,Calm,Calm,-,0.02,,Overcast,0,2013-01-28 09:56:00
2:03 AM,30.2,26.6,86,30.06,7.0,Calm,Calm,-,N/A,,Overcast,0,2013-01-28 10:03:00
2:56 AM,30.9,27.0,85,30.17,5.0,Calm,Calm,-,0.00,Snow,Light Snow,0,2013-01-28 10:56:00
3:56 AM,30.9,27.0,85,30.17,8.0,Calm,Calm,-,0.00,,Overcast,0,2013-01-28 11:56:00
4:56 AM,32.0,27.0,82,30.18,4.0,Variable,5.8,-,0.00,Snow,Light Snow,0,2013-01-28 12:56:00
5:51 AM,32.0,26.6,80,30.08,2.5,Variable,3.5,-,0.01,Snow,Light Snow,0,2013-01-28 13:51:00
5:56 AM,32.0,27.0,82,30.19,3.0,Variable,3.5,-,0.01,Snow,Light Snow,0,2013-01-28 13:56:00
6:56 AM,32.0,27.0,82,30.21,9.0,NW,6.9,-,0.00,Snow,Light Snow,310,2013-01-28 14:56:00
7:20 AM,32.0,26.6,80,30.10,2.5,NW,5.8,-,0.00,Snow,Light Snow,320,2013-01-28 15:20:00
7:28 AM,32.0,26.6,80,30.10,4.0,Variable,5.8,-,0.00,Snow,Light Snow,0,2013-01-28 15:28:00
7:56 AM,33.1,26.1,75,30.22,6.0,NNW,8.1,-,0.00,Snow,Light Snow,340,2013-01-28 15:56:00
8:56 AM,35.1,25.0,67,30.23,5.0,North,6.9,19.6,0.00,Snow,Light Snow,360,2013-01-28 16:56:00
9:56 AM,36.0,25.0,64,30.25,10.0,NNW,9.2,20.7,0.00,,Scattered Clouds,340,2013-01-28 17:56:00
10:56 AM,37.0,25.0,62,30.27,10.0,NNW,10.4,24.2,N/A,,Overcast,340,2013-01-28 18:56:00
11:56 AM,37.9,24.1,57,30.27,10.0,NNW,9.2,19.6,N/A,,Scattered Clouds,340,2013-01-28 19:56:00
12:56 PM,39.0,25.0,57,30.26,10.0,North,9.2,20.7,N/A,,Mostly Cloudy,360,2013-01-28 20:56:00
1:56 PM,39.0,26.1,60,30.25,10.0,North,12.7,21.9,N/A,,Mostly Cloudy,360,2013-01-28 21:56:00
2:56 PM,41.0,26.1,55,30.24,10.0,North,9.2,21.9,N/A,,Mostly Cloudy,360,2013-01-28 22:56:00
3:56 PM,42.1,27.0,55,30.25,10.0,North,9.2,24.2,N/A,,Scattered Clouds,350,2013-01-28 23:56:00
4:56 PM,39.9,26.1,58,30.26,10.0,North,8.1,24.2,N/A,,Clear,350,2013-01-29 00:56:00
5:56 PM,39.0,25.0,57,30.26,10.0,North,11.5,24.2,N/A,,Clear,350,2013-01-29 01:56:00
6:56 PM,39.0,25.0,57,30.27,10.0,NNW,13.8,28.8,N/A,,Clear,340,2013-01-29 02:56:00
7:56 PM,37.9,25.0,60,30.25,10.0,North,16.1,29.9,N/A,,Clear,350,2013-01-29 03:56:00
8:56 PM,37.9,25.0,60,30.26,10.0,NNW,11.5,28.8,N/A,,Clear,340,2013-01-29 04:56:00
9:56 PM,37.9,25.0,60,30.27,10.0,NNW,15.0,31.1,N/A,,Clear,340,2013-01-29 05:56:00
10:56 PM,37.9,21.9,53,30.27,10.0,North,13.8,33.4,N/A,,Clear,350,2013-01-29 06:56:00
11:56 PM,39.0,21.9,50,30.27,10.0,NNW,15.0,35.7,N/A,,Partly Cloudy,340,2013-01-29 07:56:00